Regional Weather Roundup
Issued by NWS

Home | Current Version | Previous Version | Graphics & Text | Print | Product List | Glossary On
Versions: 1 2 3 4 5 6 7 8 9 10 11 12 13 14 15 16 17 18 19 20 21 22 23 24 25 26 27 28 29 30 31 32 33 34 35 36 37 38 39 40 41 42 43 44 45 46 47 48 49 50
034
ASUS45 KCYS 222310
RWRWY

WYOMING REGIONAL WEATHER ROUNDUP
NATIONAL WEATHER SERVICE CHEYENNE WY
400 PM MST WED NOV 22 2017

NOTE:  "FAIR" INDICATES FEW OR NO CLOUDS BELOW 12,000 FEET
WITH NO SIGNIFICANT WEATHER AND/OR OBSTRUCTIONS TO VISIBILITY.

WYZ001-230000-
YELLOWSTONE NATIONAL PARK

CITY           SKY/WX    TMP DP  RH WIND       PRES   REMARKS
LK YELLOWSTONE   N/A     38  37  97 CALM      30.41F
W YELLOWSTONE  NOT AVBL

$$
WYZ002>013-054>058-071-098>099-230000-
NORTHERN WYOMING

CITY           SKY/WX    TMP DP  RH WIND       PRES   REMARKS
JACKSON        CLOUDY    50  40  68 S14       30.37F
CODY           FAIR      58  39  49 W22G32    30.22R
GREYBULL       FAIR      52  35  52 S6        30.18R
WORLAND        FAIR      40  35  83 SW7       30.20R
SHERIDAN       FAIR      60  42  51 W5        30.09R
BUFFALO        FAIR      58  33  39 NW6       30.15R
GILLETTE       FAIR      57  38  48 CALM      30.11S
HULETT         FAIR      61  37  41 W8        30.10F
NEWCASTLE      FAIR      59  34  38 NW14      30.11S

$$
WYZ014>020-022>026-101>103-230000-
CENTRAL WYOMING

CITY           SKY/WX    TMP DP  RH WIND       PRES   REMARKS
BIG PINEY      FAIR      43  39  86 SE5       30.42S
PINEDALE       MOCLDY    41  39  93 CALM      30.43S
DUBOIS         FAIR      45  36  70 NW16      30.35S
LANDER         FAIR      58  36  43 SE7       30.23F
RIVERTON       FAIR      56  38  50 SW9G23    30.24R
CASPER         FAIR      55  39  54 SW16      30.22S
DOUGLAS        FAIR      58  40  51 W16       30.19R

$$
WYZ021-027>030-104>119-230000-
SOUTHERN WYOMING

CITY           SKY/WX    TMP DP  RH WIND       PRES   REMARKS
EVANSTON       FAIR      53  40  61 SW9       30.47S
KEMMERER       FAIR      48  37  66 W9        30.46S
FORT BRIDGER   FAIR      55  41  60 W13       30.48S
ROCK SPRINGS   FAIR      52  40  63 W21G29    30.41S
DIXON          CLOUDY    51  37  58 SW14      30.42F
RAWLINS        LGT RAIN  50  40  68 W24       30.34F
SARATOGA       MOCLDY    48  37  66 W20G28    30.39R
LARAMIE        CLOUDY    50  38  63 W24       30.34R
CHEYENNE       CLOUDY    58  38  47 NW20G28   30.26R
TORRINGTON     FAIR      61  42  49 W15       30.13R
PINE BLUFFS    MOCLDY    59  36  41 NW23G32   30.21R

$$




USA.gov is the U.S. government's official web portal to all federal, state and local government web resources and services.